Location: Unspecified
(41.5000°N, 0.0000°E)
Time: 20:50:48
(UTC+00:00)

deb Explorer IX - Pass Details

Date: 21 June 2019
Orbit: 540 x 1111 km, 38.8° (Epoch: 20 August)

Event Time Altitude Azimuth Distance (km) Brightness Sun altitude
Rises 13:36:48 0° 229° (SW) 3,792 ? 63.2°
Reaches altitude 10° 13:39:36 10° 222° (SW) 2,892 ? 62.8°
Maximum altitude 13:46:16 42° 154° (SSE) 1,531 ? 61.7°
Drops below altitude 10° 13:53:04 10° 87° (E) 2,956 ? 60.6°
Sets 13:55:56 0° 81° (E) 3,883 ? 60.1°
